RYR6M GMFF-GMMX

Flight info

Callsign RYR6M
Flight time 0h 49m
Altitude 31000
Route FES UM372 KUDAX
Aircraft B38M/M-SDE1FGHILORVWXY/HB1

Departure

Time 2026-05-04 18:03
Airport Fes Saïss International Airport (GMFF)

Arrival

Time 2026-05-04 18:52
Airport Marrakesh Menara Airport (GMMX)
Time Latitude Longitude Altitude Speed Heading
2026-05-04 17:37 33.92982 -4.98388 1899 ft 0 kts
2026-05-04 17:53 33.92972 -4.98388 1888 ft 3 kts
2026-05-04 17:53 33.92952 -4.98391 1896 ft 3 kts
2026-05-04 17:53 33.92933 -4.98388 1888 ft 3 kts 346°
2026-05-04 17:53 33.92913 -4.98383 1891 ft 3 kts 347°
2026-05-04 17:54 33.92907 -4.98381 1894 ft 0 kts 345°
2026-05-04 17:57 33.92917 -4.98374 1897 ft 4 kts 43°
2026-05-04 17:57 33.92914 -4.98304 1894 ft 12 kts 98°
2026-05-04 17:57 33.92913 -4.98192 1899 ft 14 kts 90°
2026-05-04 17:57 33.92912 -4.98066 1899 ft 16 kts 90°
2026-05-04 17:58 33.92911 -4.97924 1899 ft 18 kts 90°
2026-05-04 17:58 33.92897 -4.97781 1893 ft 14 kts 117°
2026-05-04 17:58 33.92815 -4.97733 1892 ft 14 kts 180°
2026-05-04 17:58 33.92733 -4.97701 1894 ft 13 kts 113°
2026-05-04 17:59 33.92730 -4.97583 1904 ft 15 kts 89°
2026-05-04 17:59 33.92729 -4.97456 1905 ft 16 kts 91°
2026-05-04 17:59 33.92728 -4.97158 1904 ft 20 kts 90°
2026-05-04 18:00 33.92727 -4.96988 1905 ft 21 kts 90°
2026-05-04 18:00 33.92727 -4.96811 1904 ft 23 kts 90°
2026-05-04 18:00 33.92725 -4.96612 1903 ft 25 kts 90°
2026-05-04 18:00 33.92723 -4.96400 1903 ft 26 kts 90°
2026-05-04 18:01 33.92726 -4.96214 1902 ft 17 kts 78°
2026-05-04 18:01 33.92775 -4.96104 1897 ft 9 kts 71°
2026-05-04 18:01 33.92749 -4.96069 1901 ft 6 kts 180°
2026-05-04 18:02 33.92723 -4.96178 1898 ft 26 kts 271°
2026-05-04 18:02 33.92725 -4.96738 1904 ft 106 kts 270°
2026-05-04 18:02 33.92731 -4.97897 1898 ft 168 kts 269°
2026-05-04 18:02 33.92732 -4.99421 2435 ft 190 kts 272°
2026-05-04 18:03 33.92635 -5.01056 3292 ft 203 kts 258°
2026-05-04 18:03 33.91912 -5.02588 3999 ft 231 kts 224°
2026-05-04 18:03 33.90527 -5.03670 4934 ft 240 kts 211°
2026-05-04 18:03 33.89058 -5.04756 5800 ft 256 kts 215°
2026-05-04 18:04 33.87535 -5.05996 6658 ft 270 kts 216°
2026-05-04 18:04 33.86005 -5.07276 7835 ft 268 kts 217°
2026-05-04 18:04 33.82930 -5.09892 10102 ft 270 kts 217°
2026-05-04 18:05 33.81376 -5.11231 10890 ft 283 kts 217°
2026-05-04 18:05 33.79723 -5.12658 11473 ft 301 kts 217°
2026-05-04 18:05 33.77987 -5.14159 12184 ft 311 kts 218°
2026-05-04 18:05 33.76228 -5.15680 13169 ft 312 kts 218°
2026-05-04 18:06 33.72706 -5.18723 14936 ft 317 kts 218°
2026-05-04 18:06 33.70898 -5.20286 15674 ft 323 kts 218°
2026-05-04 18:06 33.69066 -5.21868 16439 ft 327 kts 219°
2026-05-04 18:07 33.67205 -5.23473 17169 ft 332 kts 219°
2026-05-04 18:07 33.65323 -5.25096 17909 ft 335 kts 219°
2026-05-04 18:07 33.63417 -5.26739 18600 ft 339 kts 219°
2026-05-04 18:07 33.61488 -5.28402 19222 ft 343 kts 219°
2026-05-04 18:08 33.59539 -5.30079 19852 ft 346 kts 219°
2026-05-04 18:08 33.57576 -5.31769 20480 ft 349 kts 219°
2026-05-04 18:08 33.55593 -5.33474 21032 ft 353 kts 219°
2026-05-04 18:08 33.53581 -5.35203 21595 ft 358 kts 219°
2026-05-04 18:09 33.49508 -5.38701 22787 ft 364 kts 220°
2026-05-04 18:09 33.45344 -5.42271 23886 ft 371 kts 220°
2026-05-04 18:10 33.43236 -5.44075 24360 ft 374 kts 220°
2026-05-04 18:10 33.41831 -5.45277 24672 ft 376 kts 220°
2026-05-04 18:10 33.39696 -5.47102 25144 ft 379 kts 220°
2026-05-04 18:10 33.37539 -5.48945 25581 ft 382 kts 220°
2026-05-04 18:11 33.35364 -5.50802 26042 ft 385 kts 220°
2026-05-04 18:11 33.33177 -5.52669 26497 ft 388 kts 220°
2026-05-04 18:11 33.30981 -5.54542 26928 ft 391 kts 219°
2026-05-04 18:11 33.28759 -5.56436 27372 ft 393 kts 219°
2026-05-04 18:12 33.26526 -5.58339 27798 ft 396 kts 219°
2026-05-04 18:12 33.24268 -5.60261 28193 ft 399 kts 219°
2026-05-04 18:12 33.21999 -5.62191 28609 ft 402 kts 219°
2026-05-04 18:12 33.19713 -5.64135 29000 ft 405 kts 219°
2026-05-04 18:13 33.17418 -5.66084 29454 ft 406 kts 219°
2026-05-04 18:13 33.15118 -5.68037 29991 ft 405 kts 219°
2026-05-04 18:13 33.10545 -5.71917 30935 ft 404 kts 220°
2026-05-04 18:14 33.08263 -5.73850 31060 ft 400 kts 220°
2026-05-04 18:14 33.03745 -5.77674 31058 ft 397 kts 220°
2026-05-04 18:15 32.94734 -5.85288 31053 ft 397 kts 219°
2026-05-04 18:16 32.90232 -5.89085 31040 ft 397 kts 219°
2026-05-04 18:16 32.85752 -5.92858 31049 ft 397 kts 219°
2026-05-04 18:17 32.78979 -5.98555 31040 ft 397 kts 219°
2026-05-04 18:18 32.72214 -6.04240 31027 ft 397 kts 220°
2026-05-04 18:18 32.67719 -6.08018 31033 ft 397 kts 220°
2026-05-04 18:19 32.60945 -6.13702 31012 ft 398 kts 219°
2026-05-04 18:19 32.56424 -6.17489 31008 ft 398 kts 219°
2026-05-04 18:20 32.51903 -6.21272 30999 ft 398 kts 219°
2026-05-04 18:20 32.47387 -6.25046 30993 ft 398 kts 219°
2026-05-04 18:21 32.42911 -6.28850 30983 ft 391 kts 226°
2026-05-04 18:21 32.41228 -6.31295 30985 ft 380 kts 244°
2026-05-04 18:21 32.39975 -6.34048 30986 ft 382 kts 244°
2026-05-04 18:22 32.37466 -6.39580 30993 ft 381 kts 244°
2026-05-04 18:22 32.35023 -6.45125 30995 ft 381 kts 245°
2026-05-04 18:23 32.32585 -6.50697 31018 ft 381 kts 245°
2026-05-04 18:23 32.30152 -6.56263 31010 ft 381 kts 245°
2026-05-04 18:24 32.27715 -6.61826 31009 ft 381 kts 245°
2026-05-04 18:24 32.25275 -6.67391 31010 ft 381 kts 245°
2026-05-04 18:25 32.22853 -6.72905 31005 ft 381 kts 245°
2026-05-04 18:25 32.20410 -6.78459 31013 ft 381 kts 245°
2026-05-04 18:26 32.17964 -6.84012 31012 ft 381 kts 245°
2026-05-04 18:26 32.15513 -6.89567 30981 ft 380 kts 245°
2026-05-04 18:27 32.13133 -6.94955 30958 ft 358 kts 245°
2026-05-04 18:27 32.12001 -6.97515 30716 ft 350 kts 245°
2026-05-04 18:27 32.10877 -7.00051 30260 ft 348 kts 245°
2026-05-04 18:28 32.09758 -7.02579 29757 ft 347 kts 245°
2026-05-04 18:28 32.08646 -7.05089 29257 ft 345 kts 245°
2026-05-04 18:28 32.07539 -7.07586 28809 ft 342 kts 245°
2026-05-04 18:28 32.06441 -7.10061 28308 ft 340 kts 245°
2026-05-04 18:29 32.05348 -7.12520 27914 ft 337 kts 245°
2026-05-04 18:29 32.04267 -7.14953 27517 ft 333 kts 245°
2026-05-04 18:29 32.03197 -7.17361 27119 ft 331 kts 245°
2026-05-04 18:29 32.02131 -7.19755 26708 ft 329 kts 245°
2026-05-04 18:30 32.00011 -7.24511 25839 ft 327 kts 245°
2026-05-04 18:30 31.98953 -7.26879 25447 ft 326 kts 244°
2026-05-04 18:30 31.97903 -7.29232 25053 ft 324 kts 244°
2026-05-04 18:31 31.96855 -7.31578 24669 ft 323 kts 244°
2026-05-04 18:31 31.95809 -7.33917 24282 ft 322 kts 244°
2026-05-04 18:31 31.94764 -7.36254 23885 ft 322 kts 244°
2026-05-04 18:31 31.93720 -7.38585 23482 ft 322 kts 244°
2026-05-04 18:32 31.92677 -7.40914 23026 ft 321 kts 244°
2026-05-04 18:32 31.91640 -7.43228 22615 ft 319 kts 244°
2026-05-04 18:32 31.90608 -7.45527 22221 ft 317 kts 244°
2026-05-04 18:32 31.89583 -7.47812 21836 ft 315 kts 244°
2026-05-04 18:33 31.88567 -7.50074 21464 ft 312 kts 244°
2026-05-04 18:33 31.87556 -7.52323 21125 ft 309 kts 244°
2026-05-04 18:33 31.86556 -7.54546 20828 ft 305 kts 244°
2026-05-04 18:33 31.85570 -7.56739 20523 ft 302 kts 244°
2026-05-04 18:34 31.84589 -7.58916 20191 ft 300 kts 244°
2026-05-04 18:34 31.83618 -7.61072 19869 ft 297 kts 244°
2026-05-04 18:34 31.82669 -7.63179 19560 ft 294 kts 244°
2026-05-04 18:34 31.81703 -7.65323 19235 ft 292 kts 245°
2026-05-04 18:35 31.81105 -7.67542 18898 ft 289 kts 265°
2026-05-04 18:35 31.81102 -7.69894 18621 ft 290 kts 269°
2026-05-04 18:35 31.81140 -7.72291 18306 ft 295 kts 270°
2026-05-04 18:35 31.81205 -7.74723 17945 ft 299 kts 271°
2026-05-04 18:36 31.81282 -7.77155 17596 ft 299 kts 271°
2026-05-04 18:36 31.81367 -7.79588 17261 ft 297 kts 271°
2026-05-04 18:36 31.81457 -7.82000 16932 ft 294 kts 271°
2026-05-04 18:36 31.81549 -7.84390 16609 ft 291 kts 271°
2026-05-04 18:37 31.81641 -7.86756 16271 ft 289 kts 271°
2026-05-04 18:37 31.81732 -7.89102 15970 ft 286 kts 272°
2026-05-04 18:37 31.81823 -7.91431 15655 ft 284 kts 272°
2026-05-04 18:37 31.81913 -7.93745 15340 ft 282 kts 272°
2026-05-04 18:38 31.82001 -7.96042 15029 ft 280 kts 272°
2026-05-04 18:38 31.82089 -7.98323 14722 ft 280 kts 272°
2026-05-04 18:38 31.82177 -8.00632 14412 ft 285 kts 272°
2026-05-04 18:38 31.82266 -8.02979 14105 ft 289 kts 272°
2026-05-04 18:39 31.82355 -8.05337 13777 ft 288 kts 272°
2026-05-04 18:39 31.82443 -8.07679 13420 ft 287 kts 272°
2026-05-04 18:39 31.82531 -8.10012 13082 ft 285 kts 272°
2026-05-04 18:39 31.82617 -8.12329 12764 ft 283 kts 272°
2026-05-04 18:40 31.82702 -8.14631 12446 ft 280 kts 271°
2026-05-04 18:40 31.82787 -8.16907 12140 ft 278 kts 271°
2026-05-04 18:40 31.82870 -8.19172 11841 ft 276 kts 271°
2026-05-04 18:40 31.82952 -8.21419 11528 ft 274 kts 271°
2026-05-04 18:41 31.83033 -8.23647 11238 ft 272 kts 271°
2026-05-04 18:41 31.83115 -8.25869 10947 ft 271 kts 271°
2026-05-04 18:41 31.83193 -8.28073 10642 ft 269 kts 271°
2026-05-04 18:41 31.83272 -8.30261 10345 ft 267 kts 271°
2026-05-04 18:42 31.83350 -8.32430 10145 ft 262 kts 270°
2026-05-04 18:42 31.83424 -8.34511 9981 ft 256 kts 270°
2026-05-04 18:42 31.83471 -8.36580 9701 ft 252 kts 264°
2026-05-04 18:42 31.82963 -8.38516 9412 ft 248 kts 238°
2026-05-04 18:43 31.81780 -8.39985 9175 ft 253 kts 216°
2026-05-04 18:43 31.80197 -8.40976 8965 ft 262 kts 207°
2026-05-04 18:43 31.78537 -8.41899 8704 ft 266 kts 206°
2026-05-04 18:43 31.76851 -8.42807 8399 ft 268 kts 205°
2026-05-04 18:44 31.75148 -8.43708 8124 ft 269 kts 205°
2026-05-04 18:44 31.73994 -8.44312 7931 ft 269 kts 204°
2026-05-04 18:44 31.71713 -8.45495 7537 ft 271 kts 204°
2026-05-04 18:44 31.69981 -8.46383 7237 ft 272 kts 201°
2026-05-04 18:45 31.68134 -8.46784 6868 ft 272 kts 175°
2026-05-04 18:45 31.66335 -8.46184 6537 ft 269 kts 149°
2026-05-04 18:45 31.64953 -8.44769 6247 ft 263 kts 123°
2026-05-04 18:45 31.64220 -8.42848 5970 ft 257 kts 101°
2026-05-04 18:46 31.63950 -8.40789 5703 ft 254 kts 95°
2026-05-04 18:46 31.63769 -8.38744 5503 ft 249 kts 94°
2026-05-04 18:46 31.63596 -8.36753 5386 ft 241 kts 93°
2026-05-04 18:46 31.63428 -8.34825 5257 ft 234 kts 92°
2026-05-04 18:47 31.63265 -8.32958 5137 ft 226 kts 93°
2026-05-04 18:47 31.63106 -8.31152 5003 ft 220 kts 93°
2026-05-04 18:47 31.62952 -8.29394 4922 ft 212 kts 93°
2026-05-04 18:47 31.62803 -8.27698 4798 ft 207 kts 93°
2026-05-04 18:48 31.62657 -8.26027 4644 ft 205 kts 93°
2026-05-04 18:48 31.62510 -8.24363 4481 ft 204 kts 93°
2026-05-04 18:48 31.62365 -8.22704 4273 ft 205 kts 93°
2026-05-04 18:48 31.62221 -8.21071 4047 ft 198 kts 92°
2026-05-04 18:49 31.62084 -8.19514 3833 ft 184 kts 93°
2026-05-04 18:49 31.61958 -8.18082 3597 ft 172 kts 93°
2026-05-04 18:49 31.61837 -8.16706 3393 ft 167 kts 92°
2026-05-04 18:49 31.61721 -8.15379 3191 ft 161 kts 92°
2026-05-04 18:50 31.61608 -8.14085 2978 ft 160 kts 92°
2026-05-04 18:50 31.61494 -8.12791 2749 ft 159 kts 92°
2026-05-04 18:50 31.61383 -8.11479 2559 ft 163 kts 91°
2026-05-04 18:50 31.61274 -8.10147 2356 ft 164 kts 94°
2026-05-04 18:51 31.61144 -8.08840 2133 ft 165 kts 93°
2026-05-04 18:51 31.61030 -8.07507 1940 ft 164 kts 92°
2026-05-04 18:51 31.60912 -8.06160 1710 ft 168 kts 93°
2026-05-04 18:51 31.60790 -8.04775 1520 ft 166 kts 93°
2026-05-04 18:52 31.60690 -8.03612 1524 ft 110 kts 95°
2026-05-04 18:52 31.60633 -8.02996 1534 ft 48 kts 96°
2026-05-04 18:52 31.60609 -8.02715 1539 ft 20 kts 95°
2026-05-04 18:52 31.60569 -8.02633 1536 ft 10 kts 180°
2026-05-04 18:53 31.60489 -8.02643 1536 ft 12 kts 186°
2026-05-04 18:53 31.60427 -8.02636 1538 ft 4 kts 151°
2026-05-04 18:53 31.60395 -8.02625 1534 ft 6 kts 184°
2026-05-04 18:53 31.60372 -8.02627 1535 ft 3 kts 185°
2026-05-04 18:54 31.60343 -8.02631 1538 ft 5 kts 186°
2026-05-04 18:54 31.60341 -8.02631 1538 ft 0 kts 187°